TimeCDT,TemperatureF,Dew PointF,Humidity,Sea Level PressureIn,VisibilityMPH,Wind Direction,Wind SpeedMPH,Gust SpeedMPH,PrecipitationIn,Events,Conditions,WindDirDegrees,DateUTC
12:55 AM,38.3,25.2,59,30.28,10.0,SE,3.5,-,N/A,,Clear,140,2012-10-13 05:55:00
1:15 AM,36.7,25.2,63,30.29,10.0,Calm,Calm,-,N/A,,Clear,0,2012-10-13 06:15:00
1:35 AM,37.0,25.0,62,30.28,7.0,ESE,5.8,-,N/A,,Clear,120,2012-10-13 06:35:00
1:55 AM,36.3,25.9,66,30.28,3.0,SE,3.5,-,N/A,,Haze,130,2012-10-13 06:55:00
2:15 AM,37.2,26.1,64,30.28,5.0,SE,3.5,-,N/A,,Haze,130,2012-10-13 07:15:00
2:35 AM,35.8,27.3,71,30.27,3.0,Calm,Calm,-,N/A,,Haze,0,2012-10-13 07:35:00
2:55 AM,37.9,27.7,67,30.26,3.0,Calm,Calm,-,N/A,,Haze,0,2012-10-13 07:55:00
3:15 AM,39.4,28.4,65,30.25,4.0,SE,4.6,-,N/A,,Haze,130,2012-10-13 08:15:00
3:35 AM,40.5,28.9,64,30.25,10.0,SE,4.6,-,N/A,,Overcast,140,2012-10-13 08:35:00
3:55 AM,41.2,28.9,62,30.22,10.0,SE,8.1,-,N/A,,Overcast,130,2012-10-13 08:55:00
4:15 AM,41.9,28.9,60,30.22,10.0,SE,5.8,-,N/A,,Overcast,140,2012-10-13 09:15:00
4:35 AM,42.1,28.8,59,30.20,10.0,SE,5.8,-,N/A,,Scattered Clouds,140,2012-10-13 09:35:00
4:55 AM,42.6,29.5,60,30.19,10.0,SSE,5.8,-,N/A,,Light Drizzle,160,2012-10-13 09:55:00
5:15 AM,44.1,28.6,55,30.17,10.0,SSE,9.2,-,N/A,,Mostly Cloudy,150,2012-10-13 10:15:00
5:35 AM,45.0,28.4,52,30.17,10.0,SSE,9.2,16.1,N/A,,Overcast,160,2012-10-13 10:35:00
5:55 AM,45.0,28.8,53,30.17,10.0,South,9.2,-,N/A,,Overcast,170,2012-10-13 10:55:00
6:15 AM,45.0,29.3,54,30.17,10.0,SSE,8.1,-,N/A,,Overcast,160,2012-10-13 11:15:00
6:35 AM,45.0,29.8,55,30.17,10.0,South,8.1,-,N/A,,Overcast,170,2012-10-13 11:35:00
6:55 AM,45.1,30.2,56,30.16,10.0,SSE,8.1,-,N/A,,Overcast,160,2012-10-13 11:55:00
7:15 AM,45.5,31.1,57,30.15,10.0,SSE,5.8,-,N/A,,Overcast,150,2012-10-13 12:15:00
7:35 AM,46.2,32.0,58,30.15,10.0,SSE,4.6,-,N/A,,Overcast,160,2012-10-13 12:35:00
7:55 AM,47.3,32.7,57,30.15,10.0,SSE,4.6,-,N/A,,Mostly Cloudy,150,2012-10-13 12:55:00
8:15 AM,48.4,34.0,58,30.14,10.0,SSE,6.9,-,N/A,,Overcast,160,2012-10-13 13:15:00
8:55 AM,50.0,35.8,58,30.11,10.0,SSE,8.1,-,N/A,,Overcast,160,2012-10-13 13:55:00
9:35 AM,52.2,37.8,58,30.11,10.0,SSE,4.6,-,N/A,,Overcast,160,2012-10-13 14:35:00
9:55 AM,54.7,39.4,56,30.10,10.0,South,9.2,-,N/A,,Mostly Cloudy,180,2012-10-13 14:55:00
10:35 AM,55.4,40.3,57,30.08,10.0,South,8.1,-,N/A,,Overcast,190,2012-10-13 15:35:00
10:55 AM,55.6,41.0,58,30.08,10.0,South,11.5,17.3,N/A,Rain,Light Rain,180,2012-10-13 15:55:00
11:15 AM,54.1,43.7,68,30.07,10.0,South,8.1,-,N/A,Rain,Light Rain,180,2012-10-13 16:15:00
11:35 AM,52.5,46.4,80,30.05,10.0,South,9.2,-,N/A,Rain,Light Rain,180,2012-10-13 16:35:00
11:55 AM,52.0,47.1,83,30.04,10.0,South,6.9,-,N/A,Rain,Light Rain,170,2012-10-13 16:55:00
12:15 PM,51.4,47.3,86,30.04,5.0,South,5.8,-,0.03,Rain,Heavy Rain,180,2012-10-13 17:15:00
12:35 PM,50.9,48.6,92,30.04,5.0,SSW,4.6,-,0.08,Rain,Light Rain,200,2012-10-13 17:35:00
1:15 PM,50.9,49.6,95,30.01,4.0,South,10.4,-,0.05,Rain,Rain,190,2012-10-13 18:15:00
1:35 PM,51.1,50.2,97,29.99,4.0,South,9.2,-,0.07,Rain,Rain,190,2012-10-13 18:35:00
1:55 PM,51.8,51.1,97,29.96,4.0,South,9.2,16.1,0.08,Rain,Light Rain,170,2012-10-13 18:55:00
2:15 PM,52.7,52.0,97,29.96,5.0,SSW,8.1,-,0.01,Rain,Light Rain,200,2012-10-13 19:15:00
2:35 PM,53.6,53.1,98,29.94,3.0,South,10.4,-,0.02,Rain,Rain,180,2012-10-13 19:35:00
3:15 PM,56.5,55.9,98,29.93,4.0,SSW,11.5,18.4,N/A,Rain,Rain,200,2012-10-13 20:15:00
3:35 PM,58.1,57.6,98,29.92,5.0,SSW,15.0,21.9,0.01,Rain,Light Rain,200,2012-10-13 20:35:00
3:55 PM,59.0,58.5,98,29.91,5.0,SSW,15.0,24.2,0.01,Rain,Light Rain,210,2012-10-13 20:55:00
4:15 PM,59.7,59.2,98,29.90,5.0,SSW,15.0,19.6,N/A,,Overcast,210,2012-10-13 21:15:00
4:35 PM,60.4,60.1,99,29.90,5.0,SSW,15.0,23.0,N/A,,Overcast,210,2012-10-13 21:35:00
4:55 PM,60.8,60.3,98,29.90,4.0,SW,17.3,23.0,N/A,,Overcast,220,2012-10-13 21:55:00
5:15 PM,61.2,60.4,97,29.90,5.0,SW,17.3,21.9,N/A,Rain,Light Rain,220,2012-10-13 22:15:00
5:35 PM,61.2,60.3,97,29.89,5.0,SSW,11.5,17.3,N/A,,Light Drizzle,210,2012-10-13 22:35:00
5:55 PM,60.8,60.1,97,29.89,4.0,SSW,9.2,-,0.06,Rain,Light Rain,210,2012-10-13 22:55:00
6:15 PM,61.0,60.3,97,29.89,4.0,SSW,11.5,18.4,N/A,,Overcast,210,2012-10-13 23:15:00
6:35 PM,61.0,60.3,97,29.88,4.0,SSW,9.2,-,N/A,,Overcast,200,2012-10-13 23:35:00
7:35 PM,61.7,61.0,97,29.89,5.0,South,10.4,-,N/A,,Overcast,190,2012-10-14 00:35:00
7:55 PM,61.9,61.0,97,29.89,5.0,SSW,9.2,-,N/A,,Mostly Cloudy,200,2012-10-14 00:55:00
9:15 PM,62.6,61.3,96,29.89,5.0,SSW,12.7,17.3,N/A,,Overcast,210,2012-10-14 02:15:00
9:35 PM,63.5,61.7,94,29.89,7.0,SSW,12.7,16.1,N/A,,Overcast,210,2012-10-14 02:35:00
9:55 PM,63.9,61.7,93,29.88,7.0,SSW,9.2,16.1,N/A,,Overcast,210,2012-10-14 02:55:00
10:15 PM,63.9,61.7,93,29.88,7.0,SSW,9.2,-,N/A,,Mostly Cloudy,210,2012-10-14 03:15:00
11:15 PM,64.0,61.7,92,29.86,7.0,SSW,10.4,16.1,N/A,,Scattered Clouds,200,2012-10-14 04:15:00
11:35 PM,63.9,61.7,93,29.85,7.0,South,11.5,17.3,N/A,,Clear,190,2012-10-14 04:35:00